Weather History for Hyannis, MA

Change the Weather History Date:

Tuesday, October 11, 2011

  Actual Average Record
Temperature  
Mean Temperature 58 °F -  
Max Temperature 66 °F 62 °F 79 °F (1955)
Min Temperature 51 °F 46 °F 29 °F (1963)
Degree Days  
Heating Degree Days 6    
Growing Degree Days 8 (Base 50)    
Moisture  
Dew Point 48 °F    
Average Humidity 69    
Maximum Humidity 89    
Minimum Humidity 50    
Precipitation  
Precipitation 0.00 in - - ()
Sea Level Pressure  
Sea Level Pressure 30.20 in    
Wind  
Wind Speed 6 mph (NE)    
Max Wind Speed 12 mph    
Max Gust Speed -    
Visibility 10 miles    
Events      
Averages and records for this station are not official NWS values.
T = Trace of Precipitation, MM = Missing Value Source: NWS Daily Summary

Daily Weather History Graph

Daily Weather History Graph

Search for Another Location

Airport:

Trip Planner

Search our weather history database for the weather conditions in past years. The results will help you decide how hot, cold, wet, or windy it might be!

Date:

Astronomy

Oct. 11, 2011 Rise Set
Actual Time 6:48 AM EDT 6:06 PM EDT
Civil Twilight 6:20 AM EDT 6:34 PM EDT
Nautical Twilight 5:48 AM EDT 7:06 PM EDT
Astronomical Twilight 5:16 AM EDT 7:38 PM EDT
Moon 5:36 PM EDT (10/11) 6:23 AM EDT (10/11)
Length of Visible Light 12h 13m
Length of Day
11h 18m
Full, 100% of the Moon is Illuminated
Oct 11
Full
Oct 11
Full
Oct 19
Last Quarter
Oct 26
New
Nov 2
First Quarter

Hourly Weather History & Observations

Time (EDT) Temp. Dew Point Humidity Pressure Visibility Wind Dir Wind Speed Gust Speed Precip Events Conditions
12:56 AM 63.0 °F 46.0 °F 54% 30.15 in 10.0 mi NNE 8.1 mph - N/A   Clear
1:56 AM 61.0 °F 46.9 °F 60% 30.15 in 10.0 mi NE 5.8 mph - N/A   Clear
2:56 AM 59.0 °F 46.4 °F 63% 30.15 in 10.0 mi NE 6.9 mph - N/A   Clear
3:56 AM 57.9 °F 46.9 °F 67% 30.16 in 10.0 mi NNE 5.8 mph - N/A   Clear
5:56 AM 55.4 °F 48.2 °F 77% 30.18 in 10.0 mi NNE 4.6 mph - N/A   Clear
6:56 AM 55.4 °F 48.2 °F 77% 30.19 in 10.0 mi NE 4.6 mph - N/A   Clear
7:56 AM 57.9 °F 48.9 °F 72% 30.20 in 10.0 mi NE 5.8 mph - N/A   Clear
8:56 AM 60.1 °F 48.9 °F 67% 30.22 in 10.0 mi NE 6.9 mph - N/A   Clear
9:56 AM 62.6 °F 48.2 °F 59% 30.22 in 10.0 mi ENE 5.8 mph - N/A   Clear
10:56 AM 64.9 °F 46.0 °F 50% 30.22 in 10.0 mi NE 6.9 mph - N/A   Clear
11:56 AM 66.0 °F 50.0 °F 56% 30.22 in 10.0 mi North 5.8 mph - N/A   Clear
12:56 PM 66.0 °F 50.0 °F 56% 30.20 in 10.0 mi North 8.1 mph - N/A   Clear
1:56 PM 66.0 °F 51.1 °F 59% 30.20 in 10.0 mi NNE 11.5 mph - N/A   Clear
2:56 PM 64.4 °F 48.2 °F 56% 30.20 in 10.0 mi NE 6.9 mph - N/A   Clear
3:56 PM 64.9 °F 50.0 °F 58% 30.20 in 10.0 mi NNE 5.8 mph - N/A   Clear
4:56 PM 62.1 °F 50.0 °F 65% 30.20 in 10.0 mi NNE 6.9 mph - N/A   Clear
5:56 PM 57.9 °F 48.0 °F 70% 30.20 in 10.0 mi NE 6.9 mph - N/A   Clear
6:56 PM 53.1 °F 48.0 °F 83% 30.22 in 10.0 mi Calm Calm - N/A   Clear
7:56 PM 51.1 °F 48.0 °F 89% 30.22 in 10.0 mi Calm Calm - N/A   Clear
8:56 PM 51.1 °F 48.0 °F 89% 30.23 in 10.0 mi Calm Calm - N/A   Clear
9:56 PM 52.0 °F 48.0 °F 86% 30.23 in 10.0 mi Calm Calm - N/A   Clear
10:56 PM 52.0 °F 48.9 °F 89% 30.24 in 10.0 mi Calm Calm - N/A   Clear
11:56 PM 52.0 °F 48.0 °F 86% 30.23 in 10.0 mi Calm Calm - N/A   Clear